This is the latest recevied weather packets stored in our database for station/object W8CEN. If no packets are shown the sender has not sent any weather packets the latest 10 day(s).
| Time | Temp. | Humidity | Pressure | Rain* | Wind** | Luminosity | Snow |
|---|---|---|---|---|---|---|---|
| 1777538484 | 6.67° C | 84% | 991.4 hPa | 0 mm | - | 0 W/m² | - |
| 1777538180 | 6.67° C | 84% | 991.6 hPa | 0 mm | - | 0 W/m² | - |
| 1777537875 | 6.67° C | 84% | 991.5 hPa | 0 mm | - | 0 W/m² | - |
| 1777537572 | 6.67° C | 84% | 991.4 hPa | 0 mm | - | 0 W/m² | - |
| 1777537268 | 6.67° C | 85% | 991.4 hPa | 0 mm | - | 0 W/m² | - |
| 1777536964 | 7.22° C | 84% | 991.2 hPa | 0 mm | - | 0 W/m² | - |
| 1777536662 | 7.22° C | 85% | 991.4 hPa | 0 mm | - | 0 W/m² | - |
| 1777536359 | 7.22° C | 84% | 991.3 hPa | 0 mm | - | 0 W/m² | - |
| 1777536055 | 7.22° C | 80% | 991.2 hPa | 0 mm | - | 0 W/m² | - |
| 1777535750 | 7.22° C | 80% | 990.9 hPa | 0 mm | - | 0 W/m² | - |
| 1777535448 | 7.22° C | 80% | 991.1 hPa | 0 mm | - | 0 W/m² | - |
| 1777535145 | 7.22° C | 82% | 991 hPa | 0 mm | - | 0 W/m² | - |
| 1777534841 | 7.22° C | 80% | 990.9 hPa | 0 mm | - | 0 W/m² | - |
| 1777534538 | 7.22° C | 79% | 991 hPa | 0 mm | - | 0 W/m² | - |
| 1777534236 | 7.22° C | 79% | 991.1 hPa | 0 mm | - | 0 W/m² | - |
| 1777533933 | 7.22° C | 79% | 990.8 hPa | 0 mm | - | 0 W/m² | - |
| 1777533630 | 7.22° C | 79% | 990.9 hPa | 0 mm | - | 0 W/m² | - |
| 1777533326 | 7.22° C | 82% | 990.7 hPa | 0 mm | - | 0 W/m² | - |
| 1777533022 | 7.22° C | 83% | 990.8 hPa | 0 mm | - | 0 W/m² | - |
| 1777532720 | 7.22° C | 84% | 990.8 hPa | 0 mm | - | 0 W/m² | - |
| 1777532416 | 7.22° C | 84% | 990.7 hPa | 0 mm | - | 0 W/m² | - |
| 1777532113 | 7.22° C | 83% | 990.6 hPa | 0 mm | - | 0 W/m² | - |
| 1777531809 | 7.22° C | 83% | 990.8 hPa | 0 mm | - | 0 W/m² | - |
| 1777531505 | 7.22° C | 82% | 990.9 hPa | 0 mm | - | 0 W/m² | - |
| 1777531203 | 7.22° C | 81% | 990.8 hPa | 0 mm | - | 0 W/m² | - |
* Rain latest hour (hover to see other rain measurements)
** Current wind speed in m/s (hover to see current wind gust speed)